www.pogodaiklimat.ru

Погода и климат >> Архив погоды >> Россия >> Оренбургская область >> Илек


ПОГОДА в Илеке

  • Прогноз погоды в Илеке
  • Монитор погоды в Илеке

АРХИВ ПОГОДЫ в Илеке

Время (UTC), дата Ветер
(напр.,м/с)
 
Видим.   Явления Облачность Т
(С)
Тd
(С)
f
(%)
Тe
(С)
Тes
(С)
Комфортность P
(гПа)
Po
(гПа)
Тmin
(С)
Tmax
(С)
R
(мм)
R24
(мм)
S
(см)
09 9.07 З 3 10 км 3/0
[Ac trans]
+33.6 +4.8 17 +31 +43 жарко 1005.7 997.9
12 9.07 С 2 10 км 8/3 1000 м
[Cu med, cong Ci fib]
+34.3 +6.1 17 +32 +37 жарко 1004.6 996.9
15 9.07 С 2 10 км 10/3 1000 м
[Cu med, cong Ac und Ci fib]
+28.0 +14.1 43 +30 +30 жарко 1004.6 996.8 +34.6
18 9.07 Ю 1 10 км 10/3 600 м
[Cb calv Ac lent Ci fib]
+25.1 +14.5 52 +28 +28 жарко 1004.7 996.8
21 9.07 ЮВ 2 10 км 10/0
[Ac lent Ci fib]
+21.9 +14.1 61 +25 +25 комфорт 1002.8 994.8
00 10.07 ЮЗ 7-15
{15}
10 км 10/0
[Ac lent]
+26.7 +10.9 37 +28 +28 жарко 1003.2 995.3
03 10.07 З 3
{15}
10 км 10/3 600 м
[Cb calv Ac lent Ci fib]
+23.6 +14.0 55 +26 +27 жарко 1004.2 996.3 +20.8
06 10.07 З 4 10 км 8/4 600 м
[Cb calv Ac trans Ci fib]
+25.8 +15.2 52 +29 +32 душно 1003.5 995.6
09 10.07 СЗ 5 10 км 8/8 1000 м
[Cu hum]
+28.6 +14.8 43 +31 +33 жарко 1002.8 995.2
12 10.07 З 3 10 км 8/8 1000 м
[Cu hum]
+29.3 +14.5 40 +31 +33 жарко 1002.7 995.1
15 10.07 З 3 10 км 3/0
[Cs]
+27.2 +8.9 32 +27 +28 жарко 1003.3 995.4 +29.6
18 10.07 З 2 10 км 6/0
[Cs]
+21.5 +8.9 44 +23 +23 комфорт 1004.9 996.9
21 10.07 З 1 10 км 8/0
[Ac trans]
+18.3 +9.0 55 +20 +20 1006.3 998.1
00 11.07 штиль 0 10 км 9/9 600 м
[Sc]
+16.5 +9.4 63 +16 +16 1007.0 998.8
03 11.07 З 2 10 км 6/3 1000 м
[Sc Ci fib]
+19.5 +9.7 53 +21 +23 комфорт 1008.0 999.9 +15.1
06 11.07 З 3 10 км 6/0
[Ac trans Ci fib]
+25.3 +7.0 31 +25 +33 комфорт 1008.5 1000.5
09 11.07 З 3 10 км 4/3 1000 м
[Cu hum Ci fib]
+27.4 +5.9 25 +26 +36 жарко 1008.4 1000.5
12 11.07 СЗ 4 10 км 3/3 1000 м
[Cu hum Ci fib]
+28.6 +7.5 26 +28 +32 жарко 1008.4 1000.5
15 11.07 С 2 10 км 10/3 600 м
[Sc Ac trans Ci fib]
+26.5 +8.0 31 +26 +27 жарко 1008.4 1000.5 +29.0
18 11.07 В 2 10 км 8/3 600 м
[Sc Ac trans]
+22.8 +7.9 38 +24 +24 комфорт 1008.4 1000.4
21 11.07 В 2 10 км ясно +20.1 +7.2 43 +22 +22 комфорт 1007.5 999.4
00 12.07 В 2 10 км 6/6 600 м
[Sc]
+19.5 +8.5 49 +21 +21 комфорт 1006.7 998.6
03 12.07 С 2 10 км 8/3 600 м
[Sc Ac trans Ci fib]
+20.4 +11.0 55 +23 +24 комфорт 1007.2 999.1 +19.1
06 12.07 В 3 10 км 8/0
[Ac trans Cs]
+28.3 +11.2 35 +29 +37 жарко 1005.5 997.6
09 12.07 СВ 3 10 км 8/6 1000 м
[Cu med, cong Ci fib]
+34.5 +12.8 27 +35 +40 очень
жарко
1003.1 995.4
12 12.07 СЗ 3 10 км 8/6 600 м
[Cb calv Ac lent]
+35.3 +13.3 27 +36 +38 очень
жарко
1001.8 994.2
15 12.07 СВ 2 10 км 10/4 600 м
[Cb calv Ac lent Ci fib]
+34.7 +13.3 28 +35 +36 очень
жарко
1000.2 992.5 +37.2
18 12.07 В 2 10 км 10/3 600 м
[Cb calv Ac lent Ci fib]
+28.3 +13.6 40 +30 +30 жарко 999.2 991.4
21 12.07 Ю 2 10 км зарница 10/3 600 м
[Cb calv Ac lent Ci fib]
+25.5 +13.0 46 +27 +27 жарко 1001.2 993.3
00 13.07 В 2
{16}
10 км гроза без осадков {ливн. осадки} 10/4 600 м
[Cb calv Ac lent]
+24.3 +16.7 63 +28 +28 душно 998.9 991.0
03 13.07 Ю 2 10 км {гроза, ливн. осадки} 10/3 600 м
[Cb calv Ac lent Ci fib]
+23.8 +17.7 69 +28 +29 душно 999.6 991.7 +22.7 1
06 13.07 ЮЗ 4 10 км {гроза, ливн. осадки} 8/3 1000 м
[Cu med, cong Ac trans Ci fib]
+29.5 +17.9 50 +34 +38 очень
душно
1000.6 992.8
09 13.07 З 3 10 км 10/4 1000 м
[Cu med, cong Ac und Cs]
+29.9 +18.3 50 +35 +39 очень
душно
1001.9 994.1
12 13.07 СЗ 4 10 км 9/0
[Ac und Cs]
+29.6 +16.9 46 +33 +37 душно 1002.2 994.4
15 13.07 СЗ 4 10 км 6/4 1000 м
[Cu med, cong Ci fib]
+26.8 +16.4 53 +30 +31 душно 1003.2 995.3 +30.5
18 13.07 СЗ 3 10 км 10/3 600 м
[Cb calv Ac lent Ci fib]
+20.9 +15.2 70 +24 +24 комфорт 1005.3 997.3
21 13.07 СЗ 2 10 км {ливн. осадки} 8/3 600 м
[Cb calv Ac lent Cs]
+18.7 +14.8 78 +20 +20 1005.2 997.1
00 14.07 З 1 10 км {ливн. осадки} 8/0
[Ac lent Ci fib]
+17.2 +14.7 85 +18 +18 1006.3 998.2
03 14.07 СЗ 2 10 км 10/0
[Ac lent]
+18.7 +15.1 80 +20 +21 1007.7 999.6 +16.8 0.0
06 14.07 С 3 10 км 8/6 1000 м
[Cu med, cong Ci fib]
+22.4 +14.0 59 +26 +29 жарко 1007.6 999.6
09 14.07 С 3 10 км 6/0
[Ci fib]
+26.1 +13.0 44 +28 +40 жарко 1006.5 998.6
12 14.07 СВ 3 10 км 6/0
[Cs]
+28.1 +12.7 39 +30 +36 жарко 1006.3 998.4
15 14.07 СВ 2 10 км 10/0
[Ac lent]
+25.2 +13.1 47 +27 +27 жарко 1006.0 998.1 +28.7
18 14.07 З 1 4000 м слаб. ливневой дождь 10/4 600 м
[Cb calv Ac lent]
+19.8 +17.3 86 +24 +24 комфорт 1006.2 998.1
21 14.07 С 4 4000 м слаб. ливневой дождь 10/4 600 м
[Cb calv Ac lent]
+17.4 +15.3 87 +17 +17 1003.2 995.1
00 15.07 С 6-13
{13}
4000 м слаб. ливневой дождь 10/4 600 м
[Cb calv Ac lent]
+16.7 +15.4 92 +16 +16 999.8 991.7
03 15.07 З 5
{13}
4000 м слаб. ливневой дождь {гроза} 10/4 600 м
[Cb calv Ac lent]
+16.0 +14.9 93 +15 +15 1001.9 993.7 +16.0 19
06 15.07 З 4
{10}
10 км {ливн. осадки} 10/3 600 м
[Cb calv Ac lent]
+17.6 +15.0 85 +17 +19 1003.6 995.5
09 15.07 СЗ 6-10
{12}
10 км 8/4 1000 м
[Cb calv Ci fib]
+21.8 +13.4 59 +25 +28 комфорт 1005.4 997.4
12 15.07 СЗ 4
{10}
10 км 8/3 1000 м
[Cu med, cong Ci fib]
+24.6 +13.2 49 +27 +30 жарко 1006.6 998.7
15 15.07 СЗ 2 10 км 3/0
[Ci fib]
+23.5 +12.2 49 +25 +26 комфорт 1008.0 1000.0 +24.6 2
18 15.07 штиль 0 10 км 3/0
[Ci fib]
+17.9 +15.6 86 +18 +18 1009.5 1001.4
21 15.07 штиль 0 10 км ясно +15.2 +13.8 91 +15 +15 1010.6 1002.4
00 16.07 штиль 0 10 км ясно +13.5 +12.7 95 +13 +13 1011.8 1003.5
03 16.07 ЮЗ 1 10 км ясно +18.3 +14.5 79 +20 +23 1012.9 1004.7 +13.2

 

Местоположение метеостанции Илек (Оренбургская область, Россия): широта 51.52 долгота 53.37 высота над уровнем моря 67 м.

В архиве по умолчанию представлена погода в Илеке за последнюю неделю. Архивные данные за месяц целиком и за предыдущие месяцы, начиная с января 2011 года, Вы можете получить, выбрав интересующий диапазон дат из раскрывающегося списка и нажав кнопку "Ввод!".


*Определитесь, кто Вы:
робот инопланетянин человек

Внимание! Время в таблицах - всемирное. Для получения местного времени необходимо прибавить поправку, которая равна 5 ч.

Смотрите также архив погоды в соседних городах и на ближайших метеорологических станциях:

Погода в Аксае (Западно-Казахстанская область, Казахстан) (46 км)
Погода в Новосергиевке (Оренбургская область, Россия) (65 км)
Погода в Чингирлау (Западно-Казахстанская область, Казахстан) (71 км)
Погода в Сорочинске (Оренбургская область, Россия) (103 км)
Погода в Оренбурге (Оренбургская область, Россия) (121 км)
Погода в Соль-Илецк (Оренбургская область, Россия) (122 км)
Погода в Анкаты (Западно-Казахстанская область, Казахстан) (123 км)
Погода в Первомайском (Оренбургская область, Россия) (126 км)
Погода в Татарской Каргале (Оренбургская область, Россия) (131 км)
Погода в Январцево (Западно-Казахстанская область, Казахстан) (147 км)

Пояснения к столбцам:

Ветер - указаны скорость ветра в м/с - средняя за 10 мин, порывы в срок и между сроками (в фигурных скобках) и направление, откуда дует ветер: С - северный, СВ - северо-восточный, В - восточный, ЮВ - юго-восточный, Ю - южный, ЮЗ - юго-западный, З - западный, СЗ - северо-западный.
Видимость - горизонтальная дальность видимости в метрах или километрах. При видимости от 1 до 10 км при отсутствии осадков обычно наблюдается дымка, при ухудшении видимости до 1 км и менее - туман. В сухую погоду видимость может ухудшаться дымом, пылью или мглою.
Явления - указаны атмосферные явления, наблюдавшиеся в срок или в последний час перед сроком; фигурными скобками обозначены явления, наблюдавшиеся между сроками (за 1-3 часа до срока); квадратными скобками обозначены град или гололедные отложения с указанием их диаметра в мм.
Облачность - указаны через наклонную черту общая и нижняя облачность в баллах и высота нижней границы облаков в метрах; квадратными скобками обозначены формы облаков: Ci - перистые, Cs - перисто-слоистые, Cc - перисто-кучевые, Ac - высококучевые, As - высокослоистые, Sc - слоисто-кучевые, Ns - слоисто-дождевые, Cu - кучевые, Cb - кучево-дождевые. Подробнее классификацию облаков см. в Атласе облаков (PDF).
T - Температура воздуха - температура, измеренная на высоте 2 м над землей.
Td - Температура точки росы - температура, при понижении до которой содержащийся в воздухе водяной пар достигнет насыщения.
f - Относительная влажность воздуха - влажноcть воздуха, измеренная на высоте 2 м над землей.
Te - Эффективная температура - температура, которую ощущает одетый по сезону человек в тени. Характеристика душности погоды. При расчете учитывается влияние влажности воздуха и скорости ветра на теплоощущения человека.
Tes - Эффективная температура на солнце - температура, которую ощущает человек, с поправкой на солнечный нагрев. Характеристика знойности погоды. Зависит от высоты солнца над горизонтом, облачности и скорости ветра. Ночью, в пасмурную погоду, а также при ветре 12 м/с и более поправка равна нулю.
P - Атмосферное давление - приведенное к уровню моря атмосферное давление.
Po - Атмосферное давление - измеренное на уровне метеостанции атмосферное давление.
Tmin - Минимальная температура - минимум температуры воздуха на высоте 2 м над землей.
Tmax - Максимальная температура - максимум температуры воздуха на высоте 2 м над землей.
R - Количество осадков - Количество выпавших осадков за период времени, мм. При наведении курсора мыши на число - период времени, за который выпало указанное количество осадков.
R24 - Количество осадков - Количество выпавших осадков за 24 часа, мм.
S - Снежный покров - Высота снежного покрова, см. При наведении курсора мыши на число - состояние снежного покрова и степень покрытия местности в баллах.